Tracking 35048 objects as of 19-Aug-2026
HD Live streaming from Space Station
objects crossing your sky now

STARLINK-31378

Track STARLINK-31378 now!
10-day predictions
STARLINK-31378 is classified as:


NORAD ID: 58932
Int'l Code: 2024-027B
Launch date: February 10, 2024
Source: United States (US)
Launch site: AIR FORCE WESTERN TEST RANGE (AFWTR)
Your satellite tracking list
Your tracking list is empty




NASA's NSSDC Master Catalog

Two Line Element Set (TLE):
1 58932U 24027B   26230.45561487  .00001392  00000-0  56621-4 0  9994
2 58932  53.1596 276.9488 0001181  71.4977 288.6152 15.31703802142119
Source of the keplerian elements: AFSPC